"Pseudo-MPEC" for C1HD342

Created 2019 Dec 5 14:07:07 UT using Find_Orb

Click here for an explanation of pseudo-MPECs

 
 Astrometry: 
     C1HD342  C2019 12 02.27154 04 08 21.13 +30 17 49.8    ~C27M 21.0 GVNEOCPG96
     C1HD342  C2019 12 02.27673 04 08 21.04 +30 17 45.7    ~C27M 21.1 GVNEOCPG96
     C1HD342  C2019 12 02.28192 04 08 20.91 +30 17 41.9    ~C27M 20.8 GVNEOCPG96
     C1HD342  C2019 12 02.28711 04 08 20.82 +30 17 38.1    ~C27M 20.6 GVNEOCPG96
     C1HD342  C2019 12 02.37308 04 08 18.98 +30 16 34.8    ~C29b 21.0 GVNEOCPI52
     C1HD342  C2019 12 02.37735 04 08 18.92 +30 16 31.4    ~C29b 20.8 GVNEOCPI52
     C1HD342  C2019 12 02.38163 04 08 18.83 +30 16 28.5    ~C29b 21.1 GVNEOCPI52
     C1HD342  C2019 12 02.38814 04 08 18.69 +30 16 23.4    ~C29b 21.2 GVNEOCPI52
     C1HD342  C2019 12 03.18897 04 08 09.45 +30 06 39.7    ~C357       VNEOCPI52
     C1HD342  C2019 12 03.19314 04 08 09.30 +30 06 34.9    ~C357       VNEOCPI52
     C1HD342 KC2019 12 05V`MZb%umU=Astrometryh/$Dx_VBp9kigd@;e;K%C,gH[4WxRt@XH21
     C1HD342 KC2019 12 05^D6*32TL#C9B=.a3ZfV@TX!h6Sudredacted;t-r0lVclickw$1IH21
     C1HD342 KC2019 12 05\.=$Ke9_+IY_'5here(qBW6pd8iN+EKc0uEsfor8#y=B8WN;6gv%H36
     C1HD342 KC2019 12 05InH^EPas5aEyq@xj2C)explanationx[`LPwnMV=u$xYwCc^yE;RH36

Station data:
(G96) Mt. Lemmon Survey  (N32.442754 W110.788720)  US/Arizona.  Observers T.
   A. Pruyne, B. M. Africano, E. J. Christensen, G. A. Farneth, D. C. Fuls,
   A. R. Gibbs, A. D. Grauer, H. Gröller, J. A. Johnson, R. A. Kowalski, S.
   M. Larson, G. J. Leonard, D. Rankin, R. L. Seaman, F. C. Shelly. 1.5-m
   reflector + 10K CCD.
(H21) Astronomical Research Observatory, Westfield  (N39.483057 W87.968270)
   US/Illinois. 0.76-m f/3.0 astrograph + CCD.
(H36) Sandlot Observatory, Scranton  (N38.797693 W95.706400)  US/Kansas.
   Observer G. Hug. 0.56-m reflector + CCD.
(I52) Steward Observatory, Mt. Lemmon Station  (N32.442547 W110.788920)
   US/Arizona.  Observers T. A. Pruyne, B. M. Africano, E. J. Christensen, G.
   A. Farneth, D. C. Fuls, A. R. Gibbs, A. D. Grauer, H. Gröller, J. A.
   Johnson, R. A. Kowalski, S. M. Larson, G. J. Leonard, D. Rankin, R. L.
   Seaman, F. C. Shelly. 1.0-m reflector + CCD.

Orbital elements:  C1HD342
   Perihelion 2019 Nov 27.478881 +/- 2.74 TT = 11:29:35 (JD 2458814.978881)
Epoch 2019 Dec  5.0 TT = JDT 2458822.5   Earth MOID: 0.4722   Ma: 0.0752
M   2.06558957 +/- 0.7              (J2000 ecliptic)          AutoNEOCP
n   0.27463860 +/- 0.00881          Peri.  145.86756 +/- 2.1
a   2.34402184 +/- 0.0501           Node   279.16150 +/- 0.42
e   0.3796890 +/- 0.00837           Incl.    5.78140 +/- 0.15
P   3.59                   H 21.5   G  0.15   U  9.6  
q 1.45402249 +/- 0.0111    Q 3.23402120 +/- 0.0861
From 14 observations 2019 Dec. 2-5; mean residual 0".31
Residuals in arcseconds: 
191202 G96  .08-  .23+    191202 I52  .07+  .09-    191205 H21  .22-  .00     
191202 G96  .20+  .13-    191202 I52  .01+  .24+    191205 H21  .12+  .18-    
191202 G96  .05-  .17-    191202 I52  .13-  .06+    191205 H36  .05+  .09+    
191202 G96  .23+  .21-    191203 I52  .43+  .97+    191205 H36  .05+  .05+    
191202 I52  .27-  .09+    191203 I52  .46-  .88-    

Ephemerides (geocentric):
Date (UTC) HH   RA              Dec         delta   r     elong  mag " sig PA
---- -- -- --  -------------   -----------  ------ ------ -----  --- ---- ---
2019 12 05 14  04 07 40.555   +29 36 56.11  .47646 1.4558 168.8 21.2 .210  52
2019 12 05 15  04 07 40.121   +29 36 24.64  .47651 1.4558 168.8 21.2 .225  53
2019 12 05 16  04 07 39.689   +29 35 53.17  .47656 1.4558 168.7 21.2 .241  55
2019 12 05 17  04 07 39.259   +29 35 21.68  .47661 1.4558 168.7 21.2 .257  56
2019 12 05 18  04 07 38.831   +29 34 50.19  .47666 1.4558 168.7 21.2 .274  57
2019 12 05 19  04 07 38.406   +29 34 18.68  .47672 1.4559 168.7 21.2 .291  58
2019 12 05 20  04 07 37.982   +29 33 47.16  .47677 1.4559 168.6 21.2 .308  59
2019 12 05 21  04 07 37.561   +29 33 15.62  .47682 1.4559 168.6 21.2 .326  60
2019 12 05 22  04 07 37.141   +29 32 44.08  .47687 1.4559 168.6 21.2 .344  61
2019 12 05 23  04 07 36.724   +29 32 12.52  .47692 1.4559 168.6 21.2 .363  61
2019 12 06 00  04 07 36.309   +29 31 40.96  .47698 1.4559 168.6 21.2 .383  62
2019 12 06 01  04 07 35.897   +29 31 09.38  .47703 1.4560 168.5 21.2 .402  62
2019 12 06 02  04 07 35.486   +29 30 37.79  .47708 1.4560 168.5 21.2 .423  63
2019 12 06 03  04 07 35.077   +29 30 06.19  .47714 1.4560 168.5 21.2 .443  63
2019 12 06 04  04 07 34.671   +29 29 34.58  .47719 1.4560 168.5 21.2 .464  64
2019 12 06 05  04 07 34.267   +29 29 02.95  .47724 1.4560 168.4 21.2 .486  64
2019 12 06 06  04 07 33.865   +29 28 31.32  .47730 1.4561 168.4 21.2 .508  65
2019 12 06 07  04 07 33.466   +29 27 59.68  .47735 1.4561 168.4 21.2 .530  65
2019 12 06 08  04 07 33.069   +29 27 28.02  .47741 1.4561 168.4 21.2 .553  65
2019 12 06 09  04 07 32.673   +29 26 56.36  .47746 1.4561 168.3 21.3 .576  66
2019 12 06 10  04 07 32.281   +29 26 24.68  .47752 1.4561 168.3 21.3 .600  66
2019 12 06 11  04 07 31.890   +29 25 53.00  .47757 1.4562 168.3 21.3 .624  66
2019 12 06 12  04 07 31.502   +29 25 21.30  .47763 1.4562 168.2 21.3 .649  67
2019 12 06 13  04 07 31.115   +29 24 49.59  .47769 1.4562 168.2 21.3 .674  67
2019 12 06 14  04 07 30.732   +29 24 17.88  .47774 1.4562 168.2 21.3 .699  67
2019 12 06 15  04 07 30.350   +29 23 46.15  .47780 1.4562 168.2 21.3 .725  67
2019 12 06 16  04 07 29.971   +29 23 14.42  .47786 1.4563 168.1 21.3 .752  67
2019 12 06 17  04 07 29.594   +29 22 42.67  .47792 1.4563 168.1 21.3 .778  68
2019 12 06 18  04 07 29.219   +29 22 10.91  .47797 1.4563 168.1 21.3 .806  68
2019 12 06 19  04 07 28.847   +29 21 39.15  .47803 1.4563 168.1 21.3 .833  68
2019 12 06 20  04 07 28.477   +29 21 07.37  .47809 1.4563 168.0 21.3 .861  68
2019 12 06 21  04 07 28.109   +29 20 35.59  .47815 1.4564 168.0 21.3 .890  68
2019 12 06 22  04 07 27.744   +29 20 03.80  .47821 1.4564 168.0 21.3 .919  68
2019 12 06 23  04 07 27.381   +29 19 31.99  .47827 1.4564 168.0 21.3 .948  69
2019 12 07 00  04 07 27.020   +29 19 00.18  .47833 1.4564 167.9 21.3 .978  69
2019 12 07 01  04 07 26.662   +29 18 28.36  .47839 1.4564 167.9 21.3 1.01  69
2019 12 07 02  04 07 26.306   +29 17 56.53  .47845 1.4565 167.9 21.3 1.04  69
2019 12 07 03  04 07 25.952   +29 17 24.69  .47851 1.4565 167.8 21.3 1.07  69
2019 12 07 04  04 07 25.601   +29 16 52.84  .47857 1.4565 167.8 21.3 1.10  69
2019 12 07 05  04 07 25.252   +29 16 20.99  .47863 1.4565 167.8 21.3 1.13  69
2019 12 07 06  04 07 24.906   +29 15 49.12  .47869 1.4566 167.8 21.3 1.17  69
2019 12 07 07  04 07 24.562   +29 15 17.25  .47875 1.4566 167.7 21.3 1.20  69
2019 12 07 08  04 07 24.220   +29 14 45.37  .47881 1.4566 167.7 21.3 1.23  69
2019 12 07 09  04 07 23.881   +29 14 13.48  .47888 1.4566 167.7 21.3 1.27  70
2019 12 07 10  04 07 23.544   +29 13 41.58  .47894 1.4566 167.7 21.3 1.30  70
2019 12 07 11  04 07 23.210   +29 13 09.67  .47900 1.4567 167.6 21.3 1.34  70
2019 12 07 12  04 07 22.878   +29 12 37.76  .47907 1.4567 167.6 21.3 1.37  70
2019 12 07 13  04 07 22.548   +29 12 05.83  .47913 1.4567 167.6 21.3 1.41  70